Le nostre stazioni meteo in Italia

Pubblicità
Il mio iltempo24.it
Roma Fiumicino, Italia (16242): Temperatura & dewpoint: 24.03.2020 11:00:00 - 30.03.2020 11:00:00 (CEST)Roma Fiumicino, Italia (16242): velocità del vento: 24.03.2020 11:00:00 - 30.03.2020 11:00:00 (CEST)Roma Fiumicino, Italia (16242): direzione del vento: 24.03.2020 11:00:00 - 30.03.2020 11:00:00 (CEST)Roma Fiumicino, Italia (16242): reduced air pressure: 24.03.2020 11:00:00 - 30.03.2020 11:00:00 (CEST)Roma Fiumicino, Italia (16242): visibility: 24.03.2020 11:00:00 - 30.03.2020 11:00:00 (CEST)Roma Fiumicino, Italia (16242): precipitazioni: 24.03.2020 11:00:00 - 30.03.2020 11:00:00 (CEST)
Data & Tempo tt [°C] td [°C] ff [km/h] ff [kn] dd ppp [hPa] vv [km] rr [mm]
30.03.2020 11:00:00 15,2 9,7 2 1 - 1013,1 10 0,0
30.03.2020 10:00:00 12,0 11,0 8 4 ENE - 10 -
30.03.2020 09:00:00 9,0 9,0 2 1 - - 8 -
30.03.2020 08:00:00 5,5 5,4 5 3 NNO 1011,9 5 -
30.03.2020 07:00:00 6,0 6,0 4 2 NNE - 3,0 -
30.03.2020 06:00:00 5,0 5,0 4 2 N - 3,0 -
30.03.2020 05:00:00 5,5 5,3 5 3 N 1011,7 4,0 0,0
30.03.2020 04:00:00 7,0 7,0 2 1 - - 5 -
30.03.2020 03:00:00 8,0 8,0 2 1 - - 5 -
30.03.2020 02:00:00 8,7 8,0 4 2 - 1012,6 8 -
30.03.2020 01:00:00 10,0 9,0 5 3 ESE - 10 -
30.03.2020 00:00:00 11,0 9,0 5 3 ESE - 10 -
29.03.2020 23:00:00 11,3 9,6 8 4 N 1013,2 10 0,0
29.03.2020 22:00:00 11,0 9,0 2 1 - - 10 -
29.03.2020 21:00:00 12,0 9,0 4 2 ESE - 10 -
29.03.2020 20:00:00 12,1 9,0 8 4 O 1012,4 10 -
29.03.2020 19:00:00 14,0 9,0 11 6 O - 10 -
29.03.2020 18:00:00 15,0 10,0 18 10 O - 10 -
29.03.2020 17:00:00 15,1 10,2 18 10 OSO 1012,0 10 0,0
29.03.2020 16:00:00 15,0 10,0 22 12 OSO - 10 -
29.03.2020 15:00:00 15,0 10,0 18 10 OSO - 10 -
29.03.2020 14:00:00 15,8 9,9 15 8 OSO 1013,3 10 -
29.03.2020 13:00:00 16,0 10,0 9 5 OSO - 10 -
29.03.2020 12:00:00 15,0 10,0 8 4 OSO - 10 -
29.03.2020 11:00:00 14,0 9,7 4 2 - 1014,3 9 0,0
29.03.2020 10:00:00 12,0 11,0 8 4 E - 9 -
29.03.2020 09:00:00 10,0 10,0 8 4 E - 6 -
29.03.2020 08:00:00 7,6 7,5 5 3 NE 1013,9 5 -
29.03.2020 07:00:00 7,0 7,0 4 2 ENE - 3,0 -
29.03.2020 06:00:00 9,0 9,0 5 3 ENE - 6 -
29.03.2020 05:00:00 9,9 9,5 2 1 E 1014,1 - 0,0
29.03.2020 04:00:00 11,0 10,0 4 2 E - 9 -
29.03.2020 03:00:00 12,0 10,0 2 1 S - 9 -
29.03.2020 02:00:00 11,4 10,0 4 2 E 1015,1 9 -
29.03.2020 01:00:00 12,0 9,0 5 3 E - 10 -
29.03.2020 00:00:00 12,0 9,0 4 2 ESE - 10 -
28.03.2020 23:00:00 11,7 9,1 4 2 E 1014,8 10 0,0
28.03.2020 22:00:00 12,0 9,0 4 2 NNE - 10 -
28.03.2020 21:00:00 13,0 9,0 4 2 ONO - 10 -
28.03.2020 20:00:00 12,7 8,3 5 3 ONO 1013,6 10 -
28.03.2020 19:00:00 13,0 9,0 9 5 O - 10 -
28.03.2020 18:00:00 14,0 7,0 11 6 ONO - 10 -
28.03.2020 17:00:00 14,0 7,9 13 7 O 1013,0 10 0,0
28.03.2020 16:00:00 16,0 8,0 13 7 O - 10 -
28.03.2020 15:00:00 16,0 7,0 13 7 OSO - 10 -
28.03.2020 14:00:00 15,1 6,7 4 2 - 1013,6 10 -
28.03.2020 13:00:00 14,0 7,0 5 3 ESE - 10 -
28.03.2020 12:00:00 13,0 7,0 9 5 E - 10 -
28.03.2020 11:00:00 12,8 7,9 8 4 NNE 1013,7 10 0,0
28.03.2020 10:00:00 11,0 7,0 8 4 ENE - 10 -
28.03.2020 09:00:00 10,0 9,0 4 2 N - 10 -
28.03.2020 08:00:00 9,1 7,8 5 3 E 1013,1 10 -
28.03.2020 07:00:00 9,0 7,0 5 3 NNE - 10 -
28.03.2020 06:00:00 9,0 7,0 8 4 NNE - 10 -
28.03.2020 05:00:00 8,8 7,4 8 4 ENE 1013,0 10 0,0
28.03.2020 04:00:00 9,0 8,0 4 2 NNE - 10 -
28.03.2020 03:00:00 9,0 8,0 4 2 - - 10 -
28.03.2020 02:00:00 9,3 8,2 5 3 N 1013,7 10 -
28.03.2020 01:00:00 10,0 8,0 4 2 NNE - 10 -
28.03.2020 00:00:00 10,0 9,0 5 3 E - 10 -
27.03.2020 23:00:00 10,0 8,8 8 4 NNE 1013,5 10 0,0
27.03.2020 22:00:00 10,0 9,0 4 2 - - 10 -
27.03.2020 21:00:00 11,0 9,0 8 4 NNE - 10 -
27.03.2020 20:00:00 11,7 8,6 2 1 - 1011,8 10 -
27.03.2020 19:00:00 13,0 6,0 4 2 - - 10 -
27.03.2020 18:00:00 14,0 8,0 9 5 S - 10 -
27.03.2020 17:00:00 13,5 8,6 13 7 SSE 1010,0 10 0,0
27.03.2020 16:00:00 14,0 8,0 16 9 S - 10 -
27.03.2020 15:00:00 14,0 9,0 18 10 SSE - 10 -
27.03.2020 14:00:00 14,2 7,8 24 13 SSE 1009,0 10 -
27.03.2020 13:00:00 15,0 9,0 22 12 S - 10 -
27.03.2020 12:00:00 16,0 8,0 24 13 SE - 10 -
27.03.2020 11:00:00 14,2 8,9 15 8 SE 1007,7 10 0,0
27.03.2020 10:00:00 13,0 10,0 9 5 ESE - 10 -
27.03.2020 09:00:00 12,0 9,0 9 5 ENE - 10 -
27.03.2020 08:00:00 9,8 8,1 11 6 E 1005,6 10 -
27.03.2020 07:00:00 9,0 6,0 13 7 E - 10 -
27.03.2020 06:00:00 9,0 6,0 4 2 NNE - 10 -
27.03.2020 05:00:00 8,7 6,1 5 3 N 1004,0 10 0,0
27.03.2020 04:00:00 9,0 7,0 8 4 NNO - 10 -
27.03.2020 03:00:00 9,0 7,0 8 4 NNE - 10 -
27.03.2020 02:00:00 9,3 6,3 8 4 NNE 1005,0 10 -
27.03.2020 01:00:00 10,0 6,0 5 3 NE - 10 -
27.03.2020 00:00:00 9,0 6,0 4 2 - - 10 -
26.03.2020 23:00:00 9,3 6,0 9 5 N 1004,2 10 0,0
26.03.2020 22:00:00 10,0 6,0 15 8 NNE - 10 -
26.03.2020 21:00:00 10,0 7,0 11 6 NNE - 10 -
26.03.2020 20:00:00 10,0 6,9 16 9 NNE 1001,9 10 -
26.03.2020 19:00:00 11,0 9,0 9 5 NE - 10 -
26.03.2020 18:00:00 11,0 9,0 11 6 NE - 10 -
26.03.2020 17:00:00 10,7 8,9 15 8 NNE 1000,7 9 0,0
26.03.2020 16:00:00 12,0 9,0 8 4 NNE - 10 -
26.03.2020 15:00:00 11,0 8,0 9 5 NNO - 10 -
26.03.2020 14:00:00 10,5 7,1 13 7 NNO 1000,3 10 -
26.03.2020 13:00:00 10,0 5,0 11 6 N - 10 -
26.03.2020 12:00:00 9,0 4,0 13 7 N - 10 -
26.03.2020 11:00:00 7,7 4,4 9 5 NE 1002,2 10 0,0
26.03.2020 10:00:00 7,0 3,0 11 6 N - 10 -
26.03.2020 09:00:00 6,0 3,0 15 8 N - 10 -
26.03.2020 08:00:00 5,5 3,5 16 9 N 1003,1 8 -
26.03.2020 07:00:00 5,0 4,0 15 8 N - 7 -
26.03.2020 06:00:00 5,0 3,0 13 7 N - 10 -
26.03.2020 05:00:00 5,1 3,3 18 10 N 1004,6 8 0,0
26.03.2020 04:00:00 5,0 3,0 21 11 N - 10 -
26.03.2020 03:00:00 5,0 3,0 18 10 N - 10 -
26.03.2020 02:00:00 5,1 2,9 15 8 N 1007,6 10 -
26.03.2020 01:00:00 6,0 3,0 13 7 NNO - 10 -
26.03.2020 00:00:00 7,0 2,0 5 3 NE - 10 -
25.03.2020 23:00:00 7,9 0,7 11 6 NE 1009,2 10 0,0
25.03.2020 22:00:00 9,0 -2,0 13 7 E - 10 -
25.03.2020 21:00:00 10,0 -3,0 8 4 E - 10 -
25.03.2020 20:00:00 10,3 -0,3 11 6 S 1008,8 10 -
25.03.2020 19:00:00 11,0 0,0 18 10 OSO - 10 -
25.03.2020 18:00:00 11,0 -1,0 21 11 O - 10 -
25.03.2020 17:00:00 11,3 -1,3 24 13 O 1009,6 10 0,0
25.03.2020 16:00:00 12,0 -4,0 21 11 O - 10 -
25.03.2020 15:00:00 12,0 -4,0 15 8 OSO - 10 -
25.03.2020 14:00:00 12,7 -3,1 9 5 - 1011,1 10 -
25.03.2020 13:00:00 11,0 -7,0 11 6 SE - 10 -
25.03.2020 12:00:00 10,0 -6,0 9 5 ENE - 10 -
25.03.2020 11:00:00 8,7 -2,8 16 9 NE 1013,2 10 0,0
25.03.2020 10:00:00 7,0 -3,0 18 10 NE - 10 -
25.03.2020 09:00:00 3,0 -3,0 21 11 NNE - 10 -
25.03.2020 08:00:00 2,3 -2,7 21 11 NNE 1014,6 10 -
25.03.2020 07:00:00 0,0 -3,0 9 5 NE - 10 -
25.03.2020 06:00:00 1,0 -2,0 11 6 NNE - 10 -
25.03.2020 05:00:00 0,5 -2,7 13 7 NNE 1015,5 10 0,0
25.03.2020 04:00:00 1,0 -3,0 13 7 NNE - 10 -
25.03.2020 03:00:00 2,0 -3,0 15 8 NNE - 10 -
25.03.2020 02:00:00 1,9 -2,9 18 10 NNE 1017,2 10 -
25.03.2020 01:00:00 3,0 -3,0 18 10 NNE - 10 -
25.03.2020 00:00:00 3,0 -3,0 16 9 NNE - 10 -
24.03.2020 23:00:00 3,6 -3,5 18 10 NNE 1018,5 10 0,0
24.03.2020 22:00:00 5,0 -4,0 22 12 NNE - 10 -
24.03.2020 21:00:00 6,0 -4,0 28 15 NNE - 10 -
24.03.2020 20:00:00 6,4 -3,7 26 14 NNE 1018,3 10 -
24.03.2020 19:00:00 8,0 -4,0 29 16 NNE - 10 -
24.03.2020 18:00:00 9,0 -4,0 34 18 N - 10 -
24.03.2020 17:00:00 9,9 -3,7 29 16 N 1018,4 10 0,0
24.03.2020 16:00:00 10,0 -4,0 28 15 NNE - 10 -
24.03.2020 15:00:00 10,0 -3,0 31 17 N - 10 -
24.03.2020 14:00:00 9,8 -3,2 61 33 N 1020,2 10 -
24.03.2020 13:00:00 9,0 -4,0 34 18 N - 10 -
24.03.2020 12:00:00 8,0 -4,0 34 18 N - 10 -
24.03.2020 11:00:00 - - - - - - - -

tt = Temperatura
td = dewpoint
ff = velocità del vento
dd = direzione del vento
ppp = reduced air pressure
vv = visibility
rr = precipitazioni

Stazioni seguenti

WeatherPro
AMSI
MeteoEarth